TimeEST,TemperatureF,Dew PointF,Humidity,Sea Level PressureIn,VisibilityMPH,Wind Direction,Wind SpeedMPH,Gust SpeedMPH,PrecipitationIn,Events,Conditions,WindDirDegrees,DateUTC
12:36 AM,30.2,21.2,69,30.14,7.0,ENE,10.4,-,0.02,Rain,Light Freezing Rain,70,2013-02-22 05:36:00
12:51 AM,30.9,21.9,69,30.15,7.0,ENE,9.2,-,0.04,Rain,Light Freezing Rain,70,2013-02-22 05:51:00
12:58 AM,30.2,23.0,75,30.13,5.0,ENE,9.2,-,0.00,Rain,Light Freezing Rain,70,2013-02-22 05:58:00
1:51 AM,30.0,24.1,79,30.11,10.0,ESE,3.5,-,0.07,Rain,Light Freezing Rain,110,2013-02-22 06:51:00
2:19 AM,30.2,26.6,86,30.08,10.0,ESE,4.6,-,0.01,,Overcast,110,2013-02-22 07:19:00
2:51 AM,30.0,26.1,85,30.07,10.0,ENE,6.9,-,0.01,,Overcast,60,2013-02-22 07:51:00
3:15 AM,30.2,26.6,86,30.04,7.0,ENE,9.2,-,0.01,Rain,Light Freezing Rain,70,2013-02-22 08:15:00
3:51 AM,30.9,27.0,85,30.04,4.0,NE,5.8,-,0.05,Rain,Light Freezing Rain,50,2013-02-22 08:51:00
4:51 AM,30.9,28.0,89,30.00,6.0,NNE,5.8,-,0.02,Rain,Light Freezing Rain,30,2013-02-22 09:51:00
5:00 AM,30.2,28.4,93,29.98,5.0,ESE,5.8,-,0.00,Rain,Light Freezing Rain,110,2013-02-22 10:00:00
5:51 AM,32.0,30.0,92,29.98,5.0,East,4.6,-,0.01,,Overcast,80,2013-02-22 10:51:00
6:51 AM,32.0,30.9,96,29.96,4.0,ENE,3.5,-,0.01,,Overcast,60,2013-02-22 11:51:00
7:51 AM,33.1,30.9,92,29.98,5.0,Calm,Calm,-,N/A,,Overcast,0,2013-02-22 12:51:00
8:51 AM,33.1,32.0,96,29.99,5.0,East,3.5,-,N/A,,Overcast,100,2013-02-22 13:51:00
9:51 AM,35.1,33.1,92,29.99,3.0,Calm,Calm,-,N/A,,Overcast,0,2013-02-22 14:51:00
10:51 AM,39.0,37.0,93,29.99,3.0,Calm,Calm,-,N/A,,Overcast,0,2013-02-22 15:51:00
11:51 AM,44.1,41.0,89,29.99,6.0,Calm,Calm,-,N/A,,Overcast,0,2013-02-22 16:51:00
12:51 PM,48.9,45.0,86,29.96,8.0,Calm,Calm,-,N/A,,Overcast,0,2013-02-22 17:51:00
1:51 PM,54.0,46.0,75,29.95,10.0,SW,6.9,-,N/A,,Mostly Cloudy,220,2013-02-22 18:51:00
2:51 PM,60.1,46.9,62,29.94,10.0,South,10.4,18.4,N/A,,Scattered Clouds,190,2013-02-22 19:51:00
3:51 PM,61.0,44.1,54,29.93,10.0,SSW,9.2,21.9,N/A,,Scattered Clouds,210,2013-02-22 20:51:00
4:51 PM,62.1,41.0,46,29.92,10.0,SSW,12.7,24.2,N/A,,Clear,210,2013-02-22 21:51:00
5:51 PM,59.0,41.0,51,29.92,10.0,SSW,6.9,-,N/A,,Clear,210,2013-02-22 22:51:00
6:51 PM,55.9,42.1,60,29.94,10.0,SSW,4.6,-,N/A,,Clear,200,2013-02-22 23:51:00
7:51 PM,55.9,42.1,60,29.94,10.0,Variable,3.5,-,N/A,,Scattered Clouds,0,2013-02-23 00:51:00
8:51 PM,48.9,43.0,80,29.96,10.0,North,6.9,-,N/A,,Overcast,350,2013-02-23 01:51:00
9:51 PM,46.0,41.0,83,29.99,10.0,North,5.8,-,N/A,,Scattered Clouds,10,2013-02-23 02:51:00
10:51 PM,45.0,39.9,82,29.99,10.0,North,4.6,-,N/A,,Mostly Cloudy,350,2013-02-23 03:51:00
11:51 PM,44.1,39.0,82,29.99,10.0,Calm,Calm,-,N/A,,Overcast,0,2013-02-23 04:51:00